Location: Arbourse
(47.2487°N, 3.2272°E)
Time: 08:47:42
(UTC+00:00)

Daily predictions for brighter satellites

Satellite Brightness Start Highest point End
(mag) Time Altitude Azimuth Time Altitude Azimuth Time Altitude Azimuth
USA 307 3.4 17:01:22 10° NW 17:05:31 45° NNE 17:09:38 10° E
H-2A R/B 2.1 17:02:05 10° NNE 17:06:16 79° WNW 17:10:21 10° SSW
COSMO-SKYMED 1 3.7 17:04:25 10° NE 17:07:55 23° E 17:11:24 10° SSE
Envisat 3.5 17:03:40 10° S 17:08:43 66° WSW 17:13:48 10° NNW
Landsat 5 4.0 17:05:38 10° N 17:09:28 58° WNW 17:13:23 10° SSW
Cosmos 1300 2.8 17:06:45 10° S 17:10:28 55° E 17:14:12 10° NNE
USA 308 3.3 17:06:20 10° NW 17:10:31 47° NNE 17:14:39 10° E
Cosmos 1486 Rocket 4.5 17:07:00 10° N 17:12:04 41° ENE 17:17:04 10° SE
Cosmos 1400 Rocket 3.4 17:08:22 10° SSE 17:12:08 36° E 17:15:53 10° NNE
Cosmos 1697 Rocket 3.8 17:09:23 10° SSE 17:13:33 22° E 17:17:45 10° NE
CZ-4B R/B 1.6 17:10:40 10° NNE 17:13:45 43° E 17:16:44 10° S
Cosmos 1825 Rocket 3.7 17:09:51 10° N 17:14:20 81° W 17:18:43 10° S
Cosmos 1825 4.0 17:13:27 10° NE 17:15:09 13° ENE 17:16:50 10° E
ERS-2 2.2 17:13:59 10° NNE 17:17:35 58° ESE 17:21:11 10° S
Helios 1A Rocket 3.9 17:15:47 10° ESE 17:19:13 26° ENE 17:22:39 10° N
BREEZE-M TANK 3.5 17:10:24 10° W 17:21:24 75° S 17:24:59 11° E
YAOGAN 1 3.8 17:18:22 10° ESE 17:21:40 22° ENE 17:24:57 10° NNE
Meteor 2-21 Rocket 4.5 17:15:49 10° N 17:22:02 88° E 17:28:09 10° S
NOAA 11 4.1 17:21:02 10° SSE 17:26:26 73° ENE 17:31:53 10° N
Cosmos 1340 2.7 17:22:54 10° N 17:26:38 53° ENE 17:30:19 10° SSE
CZ-2D R/B 4.0 17:23:48 10° SE 17:27:10 31° ENE 17:30:33 10° N
Cosmos 44 3.4 17:22:44 10° SW 17:27:14 73° NW 17:32:05 10° NE
Okean O Rocket 2.2 17:24:03 10° S 17:28:21 61° WSW 17:32:41 10° NNW
Cosmos 2228 3.3 17:24:33 10° SSW 17:28:48 70° W 17:33:06 10° N
Cosmos 1726 Rocket 3.5 17:25:16 10° S 17:29:37 88° ESE 17:34:03 10° N
CZ-4 R/B 2.3 17:26:47 10° ESE 17:30:01 26° ENE 17:33:14 10° N
SL-4 R/B 2.3 17:30:32 10° WNW 17:33:56 44° N 17:36:33 17° ENE
Cosmos 1346 Rocket 3.4 17:30:44 10° N 17:34:23 33° ENE 17:38:02 10° SE
Cosmos 2058 3.5 17:31:30 10° N 17:35:12 32° ENE 17:38:54 10° SE
Aureole 3 2.6 17:32:21 10° S 17:35:22 57° E 17:38:19 10° NNE
Cosmos 1980 Rocket 3.5 17:33:35 10° SE 17:37:16 18° E 17:39:22 15° ENE
Cosmos 2297 Rocket 2.2 17:32:29 10° NNW 17:38:12 90° ENE 17:43:51 10° SSE
In-Cosmos 22 Rocket 4.1 17:34:37 10° N 17:40:00 70° ENE 17:45:28 10° SSE
PSLV R/B 4.4 17:36:13 10° NNE 17:40:08 38° E 17:43:59 10° SSE
CZ-2C R/B 3.7 17:38:26 10° SE 17:43:45 40° ENE 17:48:55 10° N
Cosmos 1315 Rocket 3.6 17:42:30 10° SSE 17:45:57 29° E 17:49:27 10° NNE
Cosmos 1553 Rocket 4.0 17:43:40 10° S 17:49:55 65° E 17:56:07 10° NNE
Cosmos 220 Rocket 4.3 17:47:22 10° S 17:51:31 45° ESE 17:55:45 10° NNE
BREEZE-M R/B 3.5 17:50:32 10° WNW 17:54:14 71° N 17:59:00 20° E
USA 305 2.8 17:51:08 10° WNW 17:55:27 77° NNE 17:58:11 22° ESE
Meteor 2-10 Rocket 3.6 17:50:39 10° S 17:55:44 51° E 18:00:41 10° NNE
SKYMED 2 3.5 17:51:53 10° NNE 17:56:14 70° ESE 18:00:33 10° S
Cosmos 1455 2.6 17:54:16 10° SSE 17:57:47 38° E 18:01:21 10° NNE
NOSS 3-4 (A) 4.3 17:54:49 10° NW 18:01:16 42° NE 18:05:39 22° E
NOSS 3-4 (C) 4.3 17:54:56 10° NW 18:01:21 42° NE 18:05:43 22° E
USA 306 2.8 17:57:39 10° WNW 18:01:58 83° NNE 18:04:25 25° ESE
SeaSat 1 3.5 18:00:38 23° ENE 18:01:58 26° NE 18:06:00 10° N
H-2A R/B 2.5 17:59:08 10° SE 18:04:12 42° ENE 18:09:19 10° N
Okean-O 2.5 18:01:07 10° SSE 18:05:31 69° ENE 18:09:57 10° N
FALCON 9 DEB 3.8 18:03:42 10° W 18:06:48 42° NNW 18:07:57 29° NNE
MOS 1 Rocket 3.9 18:04:18 10° NNE 18:08:41 35° E 18:13:16 10° SSE
FALCON 9 DEB 3.9 18:05:42 10° W 18:08:45 39° NNW 18:09:47 29° NNE
Cosmos 2278 4.3 18:05:25 10° S 18:10:29 34° ESE 18:12:45 25° ENE
NOSS 3-3 (A) 3.9 18:05:27 10° SSW 18:11:10 62° ESE 18:16:10 17° NE
NOSS 3-3 (C) 3.9 18:05:35 10° SSW 18:11:17 62° ESE 18:16:14 17° NE
Aureole 3 Rocket 3.9 18:07:17 10° SSW 18:11:26 63° WNW 18:17:18 10° N
Cosmos 2219 4.2 18:06:08 10° NW 18:11:41 49° WSW 18:17:11 10° S
USA 215 4.0 18:10:10 21° ENE 18:13:57 40° N 18:19:57 10° WNW
ATLAS 5 CENTAUR R/B 4.2 18:12:33 10° NNW 18:14:47 13° N 18:17:08 10° NNE
Cosmos 1745 Rocket 3.9 18:09:23 10° N 18:15:44 82° E 18:22:05 10° S
Lacrosse 5 3.1 18:14:03 10° NW 18:18:29 29° N 18:20:11 24° NE
Cosmos 44 Rocket 3.6 18:14:16 10° S 18:18:46 43° ESE 18:19:58 36° E
Cosmos 1408 2.5 18:15:12 10° N 18:18:52 88° W 18:22:33 10° S
Cosmos 2082 3.7 18:13:18 10° NNW 18:19:04 88° ENE 18:24:49 10° SSE
GEOS 3 Rocket 4.0 18:17:20 30° E 18:19:36 49° NE 18:24:48 10° NNW
ARGOS 3.5 18:17:21 25° ESE 18:20:03 43° ENE 18:25:10 10° N
ATLAS 2AS CENTAUR R/B 3.2 18:16:05 10° NW 18:23:21 45° NE 18:26:17 31° E
FALCON 9 DEB 4.0 18:20:30 10° W 18:23:32 36° NNW 18:24:00 34° N
Cosmos 1656 4.1 18:18:02 10° SW 18:23:34 64° WNW 18:29:13 10° NNE
ERBS 4.2 18:21:28 10° NNW 18:23:42 19° N 18:23:42 19° N
Cosmos 2058 Rocket 4.4 18:19:57 10° SW 18:24:12 41° WNW 18:28:30 10° N
Cosmos 968 Rocket 4.2 18:19:12 10° NNW 18:24:18 56° WSW 18:29:20 10° S
Cosmos 1386 Rocket 4.5 18:18:04 10° N 18:24:31 89° E 18:30:50 10° S
Cosmos 1689 Rocket 3.1 18:22:10 10° N 18:24:57 44° WNW 18:27:42 10° SSW
FALCON 9 DEB 4.2 18:30:09 10° W 18:33:06 33° NNW 18:33:07 33° NNW
Cosmos 1076 Rocket 3.4 18:29:00 10° N 18:33:17 85° W 18:37:31 10° S
FALCON 9 DEB 3.3 18:29:52 10° WNW 18:32:58 59° N 18:32:58 59° N
Cosmos 2369 3.6 18:29:05 10° SSW 18:34:48 78° ESE 18:39:11 18° NNE
Cosmos 1892 4.3 18:31:50 10° NNW 18:35:27 37° W 18:39:02 10° SSW
Cosmos 1777 Rocket 4.2 18:33:27 10° NNW 18:38:28 46° ENE 18:38:35 46° ENE
CSL-04 Rocket 3.6 18:35:51 10° SSE 18:41:23 82° ENE 18:46:55 10° NNW
Cosmos 2227 Rocket 3.7 18:37:22 10° NW 18:42:31 36° WSW 18:47:36 10° S
COSMO-SKYMED 1 4.0 18:40:09 10° N 18:44:12 38° WNW 18:48:13 10° SW
Cosmos 2263 Rocket 2.5 18:39:30 10° NNW 18:44:59 45° NE 18:45:08 45° ENE
Cosmos 1709 Rocket 3.9 18:38:49 10° N 18:45:15 79° E 18:51:38 10° SSE
USA 307 3.4 18:41:29 10° WNW 18:45:40 54° SW 18:46:28 46° S
CZ-4C R/B 3.5 18:41:47 10° NNW 18:48:08 38° NE 18:49:38 35° ENE
USA 308 3.5 18:46:28 10° WNW 18:50:38 50° SW 18:51:15 45° S
Cosmos 1825 2.7 18:47:18 10° NNW 18:51:03 57° W 18:52:23 35° SSW
Cosmos 1697 Rocket 3.0 18:51:26 10° SW 18:57:00 64° WNW 19:01:26 17° NNE
YAOGAN 1 3.7 18:53:21 10° S 18:57:29 44° W 19:01:39 10° NNW
Cosmos 883 Rocket 4.4 18:53:40 10° S 18:59:50 85° W 19:06:00 10° N
Cosmos 1812 Rocket 4.3 19:00:29 10° SSW 19:04:46 51° WNW 19:09:03 10° N
CZ-4 R/B 3.3 19:01:38 10° SSW 19:04:59 28° W 19:08:21 10° NW
Atlas Centaur 2 4.4 19:04:09 10° SW 19:10:26 24° S 19:12:40 21° SSE
Cosmos 2315 Rocket 3.9 19:04:26 10° S 19:10:38 87° W 19:16:53 10° N
SL-4 R/B 3.4 19:10:02 10° WNW 19:12:08 33° WNW 19:12:08 33° WNW
Cosmos 2151 4.2 19:11:28 10° NNW 19:14:07 36° NNW 19:14:07 36° NNW
Cosmos 1980 Rocket 2.2 19:14:58 10° SSW 19:20:36 76° WNW 19:21:13 68° N
Ariane Rocket 4.3 19:33:54 32° NNW 19:33:54 32° NNW 19:36:37 10° NNW
SeaSat 1 3.4 19:40:26 45° WNW 19:40:26 45° WNW 19:44:04 10° NW
H-2A R/B 3.8 19:38:53 10° SSW 19:43:42 32° W 19:48:34 10° NNW
NOSS 3-4 (A) 4.1 19:45:38 10° NW 19:52:34 63° WSW 19:53:08 61° SW
NOSS 3-4 (C) 4.1 19:45:45 10° NW 19:52:40 63° WSW 19:53:11 61° SW
USA 215 3.6 19:57:31 58° NNW 19:57:31 58° NNW 20:02:54 10° NW
ATLAS 5 CENTAUR R/B 4.4 19:57:46 10° NNW 19:59:06 15° N 19:59:06 15° N
Lacrosse 5 3.8 19:57:11 10° NW 19:59:23 25° NW 19:59:23 25° NW
ATLAS 2AS CENTAUR R/B 3.3 20:07:20 10° NW 20:13:44 54° W 20:13:44 54° W
Cosmos 2263 Rocket 4.1 20:23:43 10° NW 20:26:50 27° WNW 20:26:50 27° WNW
CZ-4C R/B 3.7 20:30:08 10° NW 20:34:49 46° NW 20:34:49 46° NW
